Tracking 30994 objects as of 8-Jul-2025
HD Live streaming from Space Station
objects crossing your sky now

DELTA 1 DEB

Track DELTA 1 DEB now!
10-day predictions


NORAD ID: 7166
Int'l Code: 1973-086EE
Perigee: 1,497.4 km
Apogee: 1,518.1 km
Inclination: 102.2 °
Period: 116.0 minutes
Semi major axis: 7878 km
RCS: 0.0457 m2 (small)
Launch date: November 6, 1973
Source: United States (US)
Launch site: AIR FORCE WESTERN TEST RANGE (AFWTR)

Note: This is SATELLITE DEBRIS
Your satellite tracking list
Your tracking list is empty




NASA's NSSDC Master Catalog

Two Line Element Set (TLE):
1 07166U 73086EE  25188.60933303  .00000044  00000-0  66016-3 0  9995
2 07166 102.2293 187.2086 0013175 172.9811 306.8197 12.41415533337858
Source of the keplerian elements: AFSPC